| time (UTC) | temp C | wind direction | speed KPH | gust KPH | rain 1hr cm | rain 24hr cm | rain mn cm | humidity % | barometer mb |
| 20260502194900 | 17 | 9 | 6.4 | 12.9 | 0.00 | 0.03 | 0.03 | 68 | 1014.5 |
| 20260502194402 | 17 | 13 | 8.0 | 14.5 | 0.00 | 0.03 | 0.03 | 68 | 1014.6 |
| 20260502193856 | 17 | 1 | 8.0 | 16.1 | 0.00 | 0.03 | 0.03 | 67 | 1014.6 |
| 20260502193357 | 17 | 48 | 8.0 | 16.1 | 0.00 | 0.03 | 0.03 | 68 | 1014.6 |
| 20260502192858 | 17 | 23 | 8.0 | 16.1 | 0.00 | 0.03 | 0.03 | 68 | 1014.7 |
| 20260502192356 | 17 | 7 | 6.4 | 12.9 | 0.00 | 0.03 | 0.03 | 68 | 1014.8 |
| 20260502191854 | 17 | 335 | 6.4 | 12.9 | 0.00 | 0.03 | 0.03 | 68 | 1014.7 |
| 20260502191355 | 17 | 335 | 6.4 | 14.5 | 0.00 | 0.03 | 0.03 | 67 | 1014.7 |
| 20260502190851 | 17 | 345 | 8.0 | 14.5 | 0.00 | 0.03 | 0.03 | 67 | 1014.8 |
| 20260502190352 | 17 | 330 | 8.0 | 14.5 | 0.00 | 0.03 | 0.03 | 67 | 1014.8 |
| 20260502185933 | 17 | 346 | 9.7 | 16.1 | 0.00 | 0.03 | 0.03 | 67 | 1014.8 |
| 20260502184850 | 18 | 351 | 9.7 | 19.3 | 0.00 | 0.03 | 0.03 | 67 | 1014.8 |
| 20260502184350 | 18 | 351 | 9.7 | 17.7 | 0.00 | 0.03 | 0.03 | 67 | 1015.0 |
| 20260502183925 | 18 | 347 | 8.0 | 16.1 | 0.00 | 0.03 | 0.03 | 67 | 1014.9 |
| 20260502182349 | 18 | 358 | 8.0 | 20.9 | 0.00 | 0.03 | 0.03 | 67 | 1014.7 |
| 20260502181850 | 18 | 7 | 8.0 | 16.1 | 0.00 | 0.03 | 0.03 | 68 | 1014.8 |
| 20260502181354 | 19 | 15 | 8.0 | 16.1 | 0.00 | 0.03 | 0.03 | 68 | 1014.9 |
| 20260502180848 | 19 | 335 | 9.7 | 16.1 | 0.00 | 0.03 | 0.03 | 67 | 1014.9 |
| 20260502180348 | 20 | 21 | 8.0 | 16.1 | 0.00 | 0.03 | 0.03 | 66 | 1014.9 |
| 20260502170351 | 21 | 335 | 6.4 | 12.9 | 0.00 | 0.03 | 0.03 | 59 | 1015.0 |
| 20260502164346 | 21 | 320 | 6.4 | 12.9 | 0.00 | 0.03 | 0.03 | 58 | 1015.5 |
| 20260502163845 | 21 | 271 | 6.4 | 12.9 | 0.00 | 0.03 | 0.03 | 57 | 1015.6 |
| 20260502163346 | 21 | 318 | 4.8 | 12.9 | 0.00 | 0.03 | 0.03 | 60 | 1015.6 |
| 20260502162846 | 21 | 342 | 4.8 | 11.3 | 0.00 | 0.03 | 0.03 | 59 | 1015.8 |
| 20260502162455 | 21 | 330 | 6.4 | 12.9 | 0.00 | 0.03 | 0.03 | 59 | 1015.8 |
| 20260502160848 | 21 | 330 | 4.8 | 14.5 | 0.00 | 0.03 | 0.03 | 62 | 1015.9 |
| 20260502160420 | 21 | 339 | 6.4 | 12.9 | 0.00 | 0.03 | 0.03 | 59 | 1016.0 |
| 20260502151845 | 22 | 353 | 4.8 | 11.3 | 0.00 | 0.03 | 0.03 | 59 | 1016.4 |
| 20260502151344 | 22 | 241 | 4.8 | 14.5 | 0.00 | 0.03 | 0.03 | 59 | 1016.5 |
| 20260502150839 | 22 | 254 | 4.8 | 14.5 | 0.00 | 0.03 | 0.03 | 61 | 1016.6 |
| 20260502150340 | 22 | 224 | 8.0 | 17.7 | 0.00 | 0.03 | 0.03 | 61 | 1016.7 |
| 20260502130332 | 22 | 237 | 8.0 | 16.1 | 0.00 | 0.03 | 0.03 | 69 | 1018.0 |
| 20260502123332 | 21 | 208 | 11.3 | 22.5 | 0.00 | 0.03 | 0.03 | 72 | 1018.0 |
| 20260502122832 | 21 | 254 | 9.7 | 22.5 | 0.00 | 0.03 | 0.03 | 72 | 1018.2 |
| 20260502122331 | 21 | 230 | 9.7 | 17.7 | 0.00 | 0.03 | 0.03 | 71 | 1018.2 |
| 20260502121833 | 21 | 229 | 11.3 | 27.4 | 0.00 | 0.03 | 0.03 | 72 | 1018.3 |
| 20260502121333 | 21 | 215 | 9.7 | 27.4 | 0.00 | 0.03 | 0.03 | 70 | 1018.3 |
| 20260502120901 | 21 | 168 | 9.7 | 20.9 | 0.00 | 0.03 | 0.03 | 72 | 1018.4 |
| 20260502115832 | 21 | 238 | 9.7 | 22.5 | 0.00 | 0.03 | 0.03 | 73 | 1018.4 |
| 20260502115332 | 21 | 185 | 11.3 | 24.1 | 0.00 | 0.03 | 0.03 | 71 | 1018.5 |
| 20260502114831 | 21 | 227 | 8.0 | 24.1 | 0.00 | 0.03 | 0.03 | 70 | 1018.6 |
| 20260502114331 | 21 | 258 | 8.0 | 17.7 | 0.00 | 0.03 | 0.03 | 71 | 1018.7 |
| 20260502113833 | 21 | 224 | 9.7 | 22.5 | 0.00 | 0.03 | 0.03 | 72 | 1018.6 |
| 20260502113331 | 21 | 213 | 9.7 | 22.5 | 0.00 | 0.03 | 0.03 | 71 | 1018.7 |
| 20260502112832 | 21 | 164 | 11.3 | 19.3 | 0.00 | 0.03 | 0.03 | 73 | 1018.8 |
| 20260502112334 | 20 | 233 | 9.7 | 20.9 | 0.00 | 0.03 | 0.03 | 74 | 1018.8 |
| 20260502111937 | 20 | 260 | 11.3 | 27.4 | 0.00 | 0.03 | 0.03 | 74 | 1019.0 |
| 20260502110347 | 21 | 235 | 8.0 | 19.3 | 0.00 | 0.03 | 0.03 | 72 | 1018.9 |
| 20260502105831 | 21 | 202 | 8.0 | 17.7 | 0.00 | 0.03 | 0.03 | 73 | 1019.0 |
| 20260502105410 | 20 | 206 | 8.0 | 17.7 | 0.00 | 0.03 | 0.03 | 74 | 1019.0 |
| 20260502104330 | 20 | 239 | 8.0 | 16.1 | 0.00 | 0.03 | 0.03 | 73 | 1019.1 |
| 20260502103830 | 20 | 252 | 8.0 | 16.1 | 0.00 | 0.03 | 0.03 | 74 | 1019.1 |
| 20260502103336 | 20 | 237 | 8.0 | 22.5 | 0.00 | 0.03 | 0.03 | 75 | 1019.2 |
| 20260502102830 | 20 | 138 | 9.7 | 22.5 | 0.00 | 0.03 | 0.03 | 75 | 1019.3 |
| 20260502102408 | 20 | 179 | 9.7 | 19.3 | 0.00 | 0.03 | 0.03 | 75 | 1019.3 |
| 20260502101405 | 19 | 236 | 8.0 | 16.1 | 0.00 | 0.03 | 0.03 | 77 | 1019.3 |
| 20260502100410 | 20 | 176 | 8.0 | 16.1 | 0.00 | 0.03 | 0.03 | 76 | 1019.3 |
| 20260502091327 | 18 | 254 | 6.4 | 12.9 | 0.00 | 0.03 | 0.03 | 79 | 1019.5 |
| 20260502090825 | 18 | 225 | 6.4 | 14.5 | 0.00 | 0.03 | 0.03 | 80 | 1019.5 |
| 20260502090436 | 18 | 164 | 4.8 | 14.5 | 0.00 | 0.03 | 0.03 | 81 | 1019.6 |
| 20260502070849 | 13 | 96 | 1.6 | 4.8 | 0.03 | 0.03 | 0.03 | 85 | 1019.0 |
| 20260502065815 | 13 | 358 | 0.0 | 1.6 | 0.03 | 0.03 | 0.03 | 84 | 1019.2 |
| 20260502065315 | 13 | 358 | 0.0 | 1.6 | 0.03 | 0.03 | 0.03 | 84 | 1019.2 |
| 20260502064813 | 13 | 358 | 1.6 | 4.8 | 0.03 | 0.03 | 0.03 | 83 | 1019.2 |
| 20260502064313 | 13 | 358 | 1.6 | 4.8 | 0.03 | 0.03 | 0.03 | 83 | 1019.0 |
| 20260502063812 | 13 | 294 | 0.0 | 1.6 | 0.03 | 0.03 | 0.03 | 81 | 1019.0 |
| 20260502063315 | 13 | 294 | 1.6 | 4.8 | 0.03 | 0.03 | 0.03 | 80 | 1019.2 |
| 20260502062814 | 13 | 294 | 3.2 | 4.8 | 0.03 | 0.03 | 0.03 | 78 | 1019.2 |
| 20260502062315 | 14 | 228 | 1.6 | 4.8 | 0.03 | 0.03 | 0.03 | 77 | 1019.4 |
| 20260502061835 | 14 | 201 | 1.6 | 8.0 | 0.00 | 0.00 | 0.00 | 75 | 1019.5 |
| 20260502060809 | 13 | 212 | 4.8 | 9.7 | 0.00 | 0.00 | 0.00 | 74 | 1019.6 |
| 20260502060347 | 13 | 186 | 4.8 | 8.0 | 0.00 | 0.00 | 0.00 | 74 | 1019.6 |
| 20260502055309 | 13 | 181 | 3.2 | 9.7 | 0.00 | 0.00 | 0.00 | 76 | 1019.5 |
| 20260502054808 | 12 | 174 | 1.6 | 6.4 | 0.00 | 0.00 | 0.00 | 76 | 1019.5 |
| 20260502054310 | 12 | 199 | 0.0 | 4.8 | 0.00 | 0.00 | 0.00 | 76 | 1019.5 |
| 20260502053836 | 12 | 199 | 0.0 | 1.6 | 0.00 | 0.00 | 0.00 | 75 | 1019.3 |
| 20260502052808 | 12 | 199 | 0.0 | 3.2 | 0.00 | 0.00 | 0.00 | 73 | 1019.3 |
| 20260502052306 | 12 | 199 | 1.6 | 3.2 | 0.00 | 0.00 | 0.00 | 73 | 1019.3 |
| 20260502051806 | 12 | 200 | 1.6 | 4.8 | 0.00 | 0.00 | 0.00 | 73 | 1019.4 |
| 20260502051306 | 12 | 199 | 1.6 | 4.8 | 0.00 | 0.00 | 0.00 | 73 | 1019.3 |
| 20260502050811 | 12 | 199 | 1.6 | 4.8 | 0.00 | 0.00 | 0.00 | 73 | 1019.3 |
| 20260502050306 | 12 | 199 | 0.0 | 4.8 | 0.00 | 0.00 | 0.00 | 72 | 1019.2 |
| 20260502045806 | 12 | 199 | 1.6 | 4.8 | 0.00 | 0.00 | 0.00 | 72 | 1019.2 |
| 20260502045306 | 12 | 199 | 1.6 | 4.8 | 0.00 | 0.00 | 0.00 | 71 | 1019.2 |
| 20260502044807 | 12 | 205 | 1.6 | 4.8 | 0.00 | 0.00 | 0.00 | 71 | 1019.1 |
| 20260502044304 | 12 | 227 | 3.2 | 6.4 | 0.00 | 0.00 | 0.00 | 71 | 1019.2 |
| 20260502043807 | 12 | 199 | 1.6 | 6.4 | 0.00 | 0.00 | 0.00 | 72 | 1019.2 |
| 20260502043310 | 12 | 218 | 3.2 | 9.7 | 0.00 | 0.00 | 0.00 | 72 | 1019.2 |
| 20260502042807 | 12 | 189 | 4.8 | 9.7 | 0.00 | 0.00 | 0.00 | 73 | 1019.3 |
| 20260502042306 | 11 | 224 | 3.2 | 8.0 | 0.00 | 0.00 | 0.00 | 75 | 1019.3 |
| 20260502041805 | 11 | 212 | 1.6 | 8.0 | 0.00 | 0.00 | 0.00 | 75 | 1019.3 |
| 20260502041332 | 11 | 293 | 3.2 | 8.0 | 0.00 | 0.00 | 0.00 | 75 | 1019.0 |
| 20260502040337 | 11 | 163 | 3.2 | 4.8 | 0.00 | 0.00 | 0.00 | 75 | 1019.1 |
| 20260502035306 | 11 | 170 | 1.6 | 4.8 | 0.00 | 0.00 | 0.00 | 75 | 1019.2 |
| 20260502034805 | 11 | 173 | 1.6 | 4.8 | 0.00 | 0.00 | 0.00 | 75 | 1019.2 |
| 20260502034303 | 11 | 162 | 1.6 | 6.4 | 0.00 | 0.00 | 0.00 | 75 | 1019.1 |
| 20260502033805 | 11 | 160 | 1.6 | 6.4 | 0.00 | 0.00 | 0.00 | 75 | 1019.2 |
| 20260502033339 | 11 | 199 | 1.6 | 8.0 | 0.00 | 0.00 | 0.00 | 74 | 1019.3 |
| 20260502032309 | 11 | 116 | 3.2 | 8.0 | 0.00 | 0.00 | 0.00 | 74 | 1019.3 |
| 20260502031806 | 11 | 112 | 1.6 | 8.0 | 0.00 | 0.00 | 0.00 | 74 | 1019.2 |
| 20260502031303 | 11 | 172 | 1.6 | 3.2 | 0.00 | 0.00 | 0.00 | 74 | 1019.4 |
| 20260502030807 | 11 | 141 | 3.2 | 8.0 | 0.00 | 0.00 | 0.00 | 74 | 1019.3 |
| 20260502030344 | 11 | 160 | 3.2 | 8.0 | 0.00 | 0.00 | 0.00 | 75 | 1019.4 |
| 20260502025306 | 10 | 125 | 3.2 | 8.0 | 0.00 | 0.00 | 0.00 | 77 | 1019.5 |
| 20260502024802 | 10 | 176 | 1.6 | 4.8 | 0.00 | 0.00 | 0.00 | 77 | 1019.5 |
| 20260502024303 | 10 | 167 | 1.6 | 4.8 | 0.00 | 0.00 | 0.00 | 78 | 1019.5 |
| 20260502023802 | 10 | 85 | 3.2 | 6.4 | 0.00 | 0.00 | 0.00 | 78 | 1019.4 |
| 20260502023303 | 10 | 78 | 1.6 | 6.4 | 0.00 | 0.00 | 0.00 | 77 | 1019.4 |
| 20260502022801 | 10 | 245 | 1.6 | 6.4 | 0.00 | 0.00 | 0.00 | 78 | 1019.7 |
| 20260502022306 | 10 | 125 | 1.6 | 4.8 | 0.00 | 0.00 | 0.00 | 79 | 1019.5 |
| 20260502021903 | 10 | 141 | 1.6 | 3.2 | 0.00 | 0.00 | 0.00 | 78 | 1019.6 |
| 20260502020307 | 11 | 148 | 1.6 | 3.2 | 0.00 | 0.00 | 0.00 | 76 | 1019.7 |
| 20260502015933 | 11 | 148 | 1.6 | 3.2 | 0.00 | 0.00 | 0.00 | 76 | 1019.8 |
| 20260502013758 | 11 | 139 | 1.6 | 6.4 | 0.00 | 0.00 | 0.00 | 76 | 1019.8 |
| 20260502013258 | 11 | 133 | 3.2 | 6.4 | 0.00 | 0.00 | 0.00 | 76 | 1019.8 |
| 20260502012756 | 11 | 147 | 3.2 | 4.8 | 0.00 | 0.00 | 0.00 | 77 | 1019.9 |
| 20260502012256 | 11 | 129 | 1.6 | 6.4 | 0.00 | 0.00 | 0.00 | 77 | 1019.9 |
| 20260502011753 | 11 | 133 | 1.6 | 6.4 | 0.00 | 0.00 | 0.00 | 78 | 1019.9 |
| 20260502011254 | 11 | 160 | 3.2 | 6.4 | 0.00 | 0.00 | 0.00 | 78 | 1020.0 |
| 20260502010758 | 11 | 166 | 1.6 | 6.4 | 0.00 | 0.00 | 0.00 | 79 | 1020.0 |
| 20260502010254 | 11 | 131 | 1.6 | 3.2 | 0.00 | 0.00 | 0.00 | 79 | 1020.0 |
| 20260502005754 | 11 | 131 | 1.6 | 3.2 | 0.00 | 0.00 | 0.00 | 80 | 1020.1 |
| 20260502005253 | 11 | 131 | 1.6 | 4.8 | 0.00 | 0.00 | 0.00 | 80 | 1020.1 |
| 20260502004751 | 11 | 131 | 1.6 | 4.8 | 0.00 | 0.00 | 0.00 | 80 | 1020.1 |
| 20260502004406 | 11 | 108 | 1.6 | 4.8 | 0.00 | 0.00 | 0.00 | 79 | 1020.1 |
| 20260502002825 | 11 | 115 | 1.6 | 3.2 | 0.00 | 0.00 | 0.00 | 80 | 1020.3 |
| 20260502001749 | 11 | 116 | 1.6 | 3.2 | 0.00 | 0.00 | 0.00 | 79 | 1020.4 |
| 20260502001249 | 11 | 116 | 1.6 | 3.2 | 0.00 | 0.00 | 0.00 | 79 | 1020.4 |
| 20260502000814 | 11 | 116 | 1.6 | 3.2 | 0.00 | 0.00 | 0.00 | 78 | 1020.4 |
| 20260501235744 | 11 | 116 | 1.6 | 3.2 | 0.00 | 0.00 | 0.00 | 78 | 1020.5 |
| 20260501235244 | 11 | 116 | 1.6 | 3.2 | 0.00 | 0.00 | 0.00 | 78 | 1020.5 |
| 20260501234744 | 11 | 115 | 1.6 | 3.2 | 0.00 | 0.00 | 0.00 | 78 | 1020.6 |
| 20260501234240 | 11 | 116 | 1.6 | 3.2 | 0.00 | 0.00 | 0.00 | 77 | 1020.5 |
| 20260501233743 | 11 | 116 | 1.6 | 3.2 | 0.00 | 0.00 | 0.00 | 77 | 1020.6 |
| 20260501233240 | 11 | 115 | 1.6 | 3.2 | 0.00 | 0.00 | 0.00 | 77 | 1020.6 |
| 20260501232741 | 11 | 116 | 1.6 | 3.2 | 0.00 | 0.00 | 0.00 | 76 | 1020.7 |
| 20260501232400 | 11 | 116 | 1.6 | 3.2 | 0.00 | 0.00 | 0.00 | 76 | 1020.7 |
| 20260501231236 | 12 | 119 | 1.6 | 4.8 | 0.00 | 0.00 | 0.00 | 76 | 1020.8 |
| 20260501230740 | 12 | 119 | 1.6 | 3.2 | 0.00 | 0.00 | 0.00 | 76 | 1020.8 |
| 20260501230239 | 12 | 119 | 1.6 | 3.2 | 0.00 | 0.00 | 0.00 | 76 | 1020.8 |
| 20260501225738 | 12 | 119 | 1.6 | 3.2 | 0.00 | 0.00 | 0.00 | 76 | 1020.8 |
| 20260501225237 | 12 | 119 | 1.6 | 3.2 | 0.00 | 0.00 | 0.00 | 76 | 1020.8 |
| 20260501224736 | 12 | 119 | 1.6 | 3.2 | 0.00 | 0.00 | 0.00 | 76 | 1020.9 |
| 20260501224237 | 12 | 119 | 1.6 | 3.2 | 0.00 | 0.00 | 0.00 | 76 | 1020.9 |
| 20260501223732 | 12 | 117 | 1.6 | 3.2 | 0.00 | 0.00 | 0.00 | 77 | 1020.9 |
| 20260501223231 | 11 | 113 | 1.6 | 3.2 | 0.00 | 0.00 | 0.00 | 78 | 1020.9 |
| 20260501222731 | 11 | 113 | 1.6 | 3.2 | 0.00 | 0.00 | 0.00 | 78 | 1021.0 |
| 20260501222233 | 11 | 113 | 1.6 | 3.2 | 0.00 | 0.00 | 0.00 | 78 | 1021.1 |
| 20260501221731 | 11 | 113 | 1.6 | 3.2 | 0.00 | 0.00 | 0.00 | 78 | 1021.0 |
| 20260501221231 | 11 | 93 | 0.0 | 3.2 | 0.00 | 0.00 | 0.00 | 79 | 1021.0 |
| 20260501220731 | 11 | 318 | 0.0 | 1.6 | 0.00 | 0.00 | 0.00 | 80 | 1021.1 |
| 20260501220229 | 11 | 318 | 0.0 | 0.0 | 0.00 | 0.00 | 0.00 | 81 | 1021.0 |
| 20260501215729 | 12 | 318 | 0.0 | 1.6 | 0.00 | 0.00 | 0.00 | 80 | 1021.0 |
| 20260501215228 | 12 | 318 | 0.0 | 1.6 | 0.00 | 0.00 | 0.00 | 80 | 1021.0 |
| 20260501214731 | 12 | 318 | 0.0 | 0.0 | 0.00 | 0.00 | 0.00 | 80 | 1021.1 |
| 20260501214228 | 12 | 318 | 0.0 | 1.6 | 0.00 | 0.00 | 0.00 | 79 | 1021.1 |
| 20260501213729 | 12 | 318 | 0.0 | 1.6 | 0.00 | 0.00 | 0.00 | 79 | 1021.1 |
| 20260501213229 | 12 | 318 | 1.6 | 3.2 | 0.00 | 0.00 | 0.00 | 79 | 1021.1 |
| 20260501212728 | 12 | 318 | 1.6 | 3.2 | 0.00 | 0.00 | 0.00 | 79 | 1021.1 |
| 20260501212249 | 12 | 318 | 0.0 | 1.6 | 0.00 | 0.00 | 0.00 | 80 | 1021.1 |
| 20260501211247 | 12 | 318 | 0.0 | 1.6 | 0.00 | 0.00 | 0.00 | 78 | 1021.1 |
| 20260501210225 | 13 | 318 | 1.6 | 1.6 | 0.00 | 0.00 | 0.00 | 75 | 1021.1 |
| 20260501205726 | 13 | 318 | 1.6 | 3.2 | 0.00 | 0.00 | 0.00 | 75 | 1021.2 |
| 20260501205222 | 13 | 318 | 1.6 | 3.2 | 0.00 | 0.00 | 0.00 | 74 | 1021.2 |
| 20260501204723 | 13 | 318 | 1.6 | 3.2 | 0.00 | 0.00 | 0.00 | 72 | 1021.2 |
| 20260501204223 | 13 | 318 | 0.0 | 3.2 | 0.00 | 0.00 | 0.00 | 72 | 1021.2 |
| 20260501203719 | 14 | 318 | 0.0 | 1.6 | 0.00 | 0.00 | 0.00 | 72 | 1021.2 |
| 20260501203221 | 14 | 318 | 0.0 | 3.2 | 0.00 | 0.00 | 0.00 | 70 | 1021.2 |
| 20260501202718 | 14 | 318 | 1.6 | 3.2 | 0.00 | 0.00 | 0.00 | 69 | 1021.3 |
| 20260501202216 | 14 | 318 | 0.0 | 3.2 | 0.00 | 0.00 | 0.00 | 70 | 1021.3 |
| 20260501201716 | 15 | 318 | 0.0 | 0.0 | 0.00 | 0.00 | 0.00 | 70 | 1021.2 |
| 20260501201214 | 15 | 318 | 0.0 | 0.0 | 0.00 | 0.00 | 0.00 | 69 | 1021.3 |
| 20260501200714 | 15 | 318 | 0.0 | 1.6 | 0.00 | 0.00 | 0.00 | 68 | 1021.3 |
| 20260501200215 | 15 | 318 | 0.0 | 1.6 | 0.00 | 0.00 | 0.00 | 67 | 1021.3 |
| 20260501195714 | 15 | 318 | 0.0 | 0.0 | 0.00 | 0.00 | 0.00 | 64 | 1021.3 |
| 20260501195244 | 15 | 318 | 0.0 | 1.6 | 0.00 | 0.00 | 0.00 | 62 | 1021.2 |